Location: Aranbee
(34.0885°N, 118.2342°W)
Time: 02:19:36
(UTC+00:00)

Explorer 7 - Pass Details

Date: 02 August 2021
Orbit: 484 x 676 km, 50.3° (Epoch: 24 September)

Event Time Altitude Azimuth Distance (km) Brightness Sun altitude
Exits shadow 11:40:25 36° 238° (WSW) 781 7.0 -16.2°
Maximum altitude 11:41:50 78° 319° (NW) 501 6.5 -16.0°
Drops below altitude 10° 11:45:39 10° 46° (NE) 1,698 10.7 -15.3°
Sets 11:47:53 0° 48° (NE) 2,606 12.1 -15.0°
